Location: Hawks Ness
(60.2333°N, 1.1667°W)
Time: 04:23:48
(UTC+00:00)

ATLAS 2AS CENTAUR R/B - Pass Details

Date: 22 October 2019
Orbit: 926 x 1286 km, 63.7° (Epoch: 18 November)

Event Time Altitude Azimuth Distance (km) Brightness Sun altitude
Exits shadow 06:08:40 - 256° (WSW) 3,782 5.0 -7.1°
Reaches altitude 10° 06:10:07 10° 257° (WSW) 3,292 4.7 -6.9°
Maximum altitude 06:18:12 76° 343° (NNW) 1,313 3.2 -6.0°
Drops below altitude 10° 06:26:01 10° 70° (ENE) 3,189 6.2 -5.0°
Sets 06:28:44 0° 72° (ENE) 4,114 6.9 -4.7°
